Weather observations for the past three days for
Alexandria, Alexandria International Airport
Metric (Imperial)
Date Time (cdt) Wind (kph) Vis. (km) Weather Sky Cond. Temperature (ºC) Relative Humidity Wind Chill (°C) Heat Index (°C) Pressure Precipitation (cm)
Air Dwpt 6 hour altimeter (cm) sea level (mb) 1 hr 3 hr 6 hr
Max. Min.
16 07:53 SE 7 9.66 Fair with Haze CLR 27.2 23.9 82% 30 76.02 1013.7
16 06:53 S 7 6.44 Fog/Mist CLR 23.9 22.8 27.2 22.8 94% 23 76 1013.3
16 05:53 Calm 11.27 Fair CLR 23.3 21.7 91% 75.97 1013.0
16 04:53 Calm 11.27 Fair CLR 23.3 21.7 91% 75.97 1013.0
16 03:53 Calm 12.87 Fair CLR 25 22.2 85% 26 75.95 1012.6
16 02:53 Calm 12.87 Fair CLR 25 22.8 88% 26 75.95 1012.6
16 01:53 S 6 12.87 Fair CLR 25.6 22.8 85% 27 75.95 1012.6
16 00:53 SE 13 14.48 A Few Clouds FEW085 27.2 22.8 32.8 26.7 77% 30 75.97 1012.9
15 23:53 Calm 16.09 Overcast SCT055 BKN065 OVC095 27.2 22.8 77% 30 75.97 1012.8
15 22:53 Calm 16.09 Fair CLR 26.7 22.2 76% 29 75.95 1012.6
15 21:53 Calm 16.09 Fair CLR 27.8 21.7 69% 30 75.92 1012.2
15 20:53 Calm 16.09 Fair CLR 28.9 21.7 65% 32 75.87 1011.8
15 19:53 SE 7 16.09 Fair CLR 31.1 21.1 55% 34 75.87 1011.5
15 18:53 SE 11 16.09 Fair CLR 32.8 20.6 35.6 32.8 49% 36 75.84 1011.5
15 17:53 SE 15 16.09 Fair CLR 35 20.6 43% 38 75.84 1011.3
15 16:53 S 9 16.09 A Few Clouds FEW065 35 19.4 40% 37 75.87 1011.8
15 15:53 S 11 16.09 Fair CLR 35 20 41% 38 75.92 1012.2
15 14:53 SE 7 16.09 Partly Cloudy SCT060 34.4 19.4 41% 36 75.95 1012.7
15 13:53 Calm 16.09 Fair CLR 35 20 41% 38 76 1013.4
15 12:53 Vrbl 11 16.09 Fair CLR 34.4 21.1 34.4 21.7 46% 38 76.05 1014.0
15 11:53 S 7 16.09 Fair CLR 34.4 20 43% 37 76.07 1014.5
15 10:53 E 6 14.48 Fair CLR 32.8 22.8 56% 38 76.1 1014.7
15 09:53 Calm 12.87 Fair CLR 30.6 22.8 63% 35 76.1 1014.7
15 08:53 Vrbl 6 12.87 Fair CLR 27.8 22.2 72% 30 76.1 1014.8
15 07:53 Calm 12.87 Fair CLR 25 21.7 82% 26 76.1 1014.7
15 06:53 Calm 11.27 Fair CLR 21.7 20.6 23.9 21.1 94% 76.05 1014.2
15 05:53 Calm 12.87 Fair CLR 21.7 20.6 94% 76.02 1013.7
15 04:53 Calm 11.27 Fair CLR 21.1 20.6 97% 76 1013.3
15 03:53 Calm 14.48 Fair CLR 21.7 20.6 94% 75.97 1013.1
15 02:53 Calm 14.48 Fair CLR 22.2 20.6 91% 76 1013.4
15 01:53 Calm 16.09 Fair CLR 22.2 20.6 91% 76 1013.5
15 00:53 Calm 16.09 Fair CLR 23.9 20.6 32.8 23.3 82% 24 76.02 1013.7
14 23:53 Calm 16.09 Fair CLR 23.9 21.1 84% 24 76.05 1014.0
14 22:53 E 6 16.09 Fair CLR 26.1 20.6 72% 28 76.05 1013.8
14 21:53 NE 7 16.09 Fair CLR 27.2 20.6 67% 29 76 1013.5
14 20:53 NE 7 16.09 Fair CLR 26.7 21.1 71% 28 75.97 1013.1
14 19:53 NE 7 16.09 Fair CLR 30.6 20 53% 33 75.95 1012.7
14 18:53 NE 9 16.09 Fair CLR 32.8 18.3 35 32.2 42% 34 75.92 1012.4
14 17:53 N 6 16.09 Fair CLR 34.4 18.9 40% 36 75.9 1012.2
14 16:53 N 9 16.09 Fair CLR 35 19.4 40% 37 75.92 1012.4
14 15:53 Vrbl 11 16.09 Fair CLR 34.4 18.9 40% 36 75.92 1012.5
14 14:53 Vrbl 6 16.09 Fair CLR 33.3 18.3 41% 34 75.97 1013.1
14 13:53 S 7 16.09 Fair CLR 32.8 18.3 42% 34 76 1013.3
14 12:53 Calm 16.09 Fair CLR 32.2 18.3 33.3 19.4 44% 33 76.07 1014.5
14 11:53 NE 7 16.09 Fair CLR 32.2 18.9 45% 34 76.1 1014.7
14 10:53 N 9 16.09 Fair CLR 30.6 18.3 48% 32 76.1 1014.9
14 09:53 Vrbl 7 16.09 Fair CLR 28.9 17.8 51% 30 76.15 1015.3
14 08:53 Calm 16.09 Fair CLR 26.1 18.9 65% 27 76.17 1015.7
14 07:53 Calm 16.09 Fair CLR 23.3 18.3 74% 76.15 1015.3
14 06:53 Calm 12.87 Fair CLR 19.4 18.3 20.6 17.8 93% 76.12 1015.0
14 05:53 Calm 16.09 Fair CLR 18.3 17.8 97% 76.07 1014.5
14 04:53 Calm 16.09 Fair CLR 18.9 17.2 90% 76.05 1014.2
14 03:53 N 6 16.09 Fair CLR 19.4 18.3 93% 76.05 1014.0
14 02:53 Calm 16.09 Fair CLR 19.4 18.3 93% 76.02 1013.7
14 01:53 NW 6 16.09 Fair CLR 20 18.9 93% 76.02 1013.7
14 00:53 Calm 16.09 Fair CLR 19.4 18.3 31.1 19.4 93% 76 1013.6
13 23:53 Calm 16.09 Fair CLR 21.7 18.9 84% 76.02 1013.7
13 22:53 Calm 16.09 Fair CLR 21.7 18.3 81% 76.02 1013.6
13 21:53 NE 6 16.09 Fair CLR 24.4 18.3 69% 25 76 1013.2
13 20:53 E 7 16.09 Fair CLR 26.1 17.8 60% 27 75.97 1013.2
13 19:53 NE 7 16.09 Fair CLR 28.9 17.2 49% 29 75.97 1013.0
13 18:53 NE 7 16.09 Fair CLR 31.1 13.9 33.3 30.6 35% 30 75.97 1012.9
13 17:53 NE 11 16.09 Fair CLR 32.2 14.4 34% 32 75.97 1013.0
13 16:53 E 11 16.09 Fair CLR 32.2 14.4 34% 32 75.97 1013.2
13 15:53 NE 9 16.09 Fair CLR 33.3 14.4 32% 33 76 1013.4
13 14:53 NE 7 16.09 Fair CLR 32.8 15.6 35% 33 76.02 1013.8
13 13:53 E 9 16.09 Fair CLR 31.7 16.1 39% 32 76.07 1014.4
13 12:53 NW 6 16.09 Fair CLR 30.6 16.1 31.1 19.4 42% 31 76.1 1014.8
13 11:53 Vrbl 7 16.09 Fair CLR 30.6 14.4 37% 30 76.12 1015.2
13 10:53 Calm 16.09 Fair CLR 28.9 15 43% 29 76.15 1015.5
13 09:53 NE 7 16.09 Fair CLR 27.8 16.1 49% 28 76.15 1015.4
13 08:53 E 6 16.09 Fair CLR 25.6 17.2 60% 27 76.15 1015.4
Date Time (cdt) Wind (kph) Vis. (km) Weather Sky Cond. Air Dwpt Max. Min. Relative Humidity Wind Chill (°C) Heat Index (°C) altimeter (cm) sea level (mb) 1 hr 3 hr 6 hr
6 hour
Temperature (ºC) Pressure Precipitation (cm)